Regional Weather Roundup
Issued by NWS

Home | Current Version | Previous Version | Graphics & Text | Print | Product List | Glossary On
Versions: 1 2 3 4 5 6 7 8 9 10 11 12 13 14 15 16 17 18 19 20 21 22 23 24 25 26 27 28 29 30 31 32 33 34 35 36 37 38 39 40 41 42 43 44 45 46 47 48 49 50
000
ASUS43 KLMK 181702
RWRKY
KENTUCKY REGIONAL WEATHER ROUNDUP
NATIONAL WEATHER SERVICE LOUISVILLE KY
100 PM EDT WED OCT 18 2017

NOTE "FAIR" INDICATES FEW OR NO CLOUDS BELOW 12,000 FEET
WITH NO SIGNIFICANT WEATHER AND/OR OBSTRUCTIONS TO VISIBILITY.

KYZ001>023-026-027-061>063-070>075-181800-
WESTERN AND SOUTH CENTRAL KENTUCKY

CITY           SKY/WX    TMP DP  RH WIND       PRES   REMARKS
PADUCAH        SUNNY     70  45  40 SW10G20   30.26F
HENDERSON      SUNNY     69  48  47 S10       30.28F
OWENSBORO      SUNNY     68  47  46 S15       30.29F
HOPKINSVILLE   SUNNY     68  46  45 SW10      30.29F
BOWLING GREEN  SUNNY     68  46  45 SW9       30.32F
GLASGOW        NOT AVBL
$$

KYZ024-025-028>034-038-045-046-053-181800-
NORTH CENTRAL KENTUCKY

CITY           SKY/WX    TMP DP  RH WIND       PRES   REMARKS
LOUISVILLE/SDF MOSUNNY   68  45  43 SW8       30.30F
LOUISVILLE/LOU SUNNY     66  48  52 S6        30.31F
FORT KNOX      SUNNY     68  44  43 SW8       30.29F
$$

KYZ035>037-039>044-047>052-055>060-089>105-181800-
NORTHEAST KENTUCKY

CITY           SKY/WX    TMP DP  RH WIND       PRES   REMARKS
LEXINGTON      SUNNY     66  47  50 SW8       30.32F
COVINGTON      MOSUNNY   65  45  48 S7        30.31F
FRANKFORT      SUNNY     67  42  40 SW8       30.31F
$$

KYZ054-064>069-076>088-106>120-181800-
SOUTHEAST KENTUCKY

CITY           SKY/WX    TMP DP  RH WIND       PRES   REMARKS
JACKSON        SUNNY     65  42  43 VRB5      30.34F
LONDON         SUNNY     63  41  44 CALM      30.35F
SOMERSET       NOT AVBL
MIDDLESBORO    SUNNY     63  45  51 NE3       30.36F
MONTICELLO     SUNNY     66  46  48 VRB3      30.36F
$$





USA.gov is the U.S. government's official web portal to all federal, state and local government web resources and services.